TimeEDT,TemperatureF,Dew PointF,Humidity,Sea Level PressureIn,VisibilityMPH,Wind Direction,Wind SpeedMPH,Gust SpeedMPH,PrecipitationIn,Events,Conditions,WindDirDegrees,DateUTC
12:53 AM,71.1,68.0,90,29.90,5.0,Calm,Calm,-,N/A,,Mostly Cloudy,0,2013-08-31 04:53:00
1:53 AM,73.0,68.0,84,29.89,7.0,Calm,Calm,-,N/A,,Mostly Cloudy,0,2013-08-31 05:53:00
2:53 AM,73.9,69.1,85,29.89,8.0,SW,4.6,-,N/A,,Mostly Cloudy,230,2013-08-31 06:53:00
3:34 AM,73.9,69.1,85,29.97,8.0,SW,4.6,-,N/A,,Mostly Cloudy,220,2013-08-31 07:34:00
3:53 AM,73.9,69.1,85,29.89,8.0,SSW,3.5,-,N/A,,Mostly Cloudy,210,2013-08-31 07:53:00
4:53 AM,73.9,69.1,85,29.89,8.0,Calm,Calm,-,N/A,,Mostly Cloudy,0,2013-08-31 08:53:00
5:53 AM,73.9,69.1,85,29.89,8.0,SW,4.6,-,N/A,,Overcast,220,2013-08-31 09:53:00
6:53 AM,73.0,69.1,87,29.91,6.0,Calm,Calm,-,N/A,,Overcast,0,2013-08-31 10:53:00
7:53 AM,73.9,69.1,85,29.92,3.0,SW,4.6,-,N/A,,Haze,220,2013-08-31 11:53:00
8:30 AM,73.9,69.1,85,30.00,4.0,SSW,4.6,-,N/A,,Haze,210,2013-08-31 12:30:00
8:53 AM,73.9,69.1,85,29.93,5.0,South,4.6,-,N/A,,Haze,190,2013-08-31 12:53:00
9:17 AM,75.9,70.0,82,30.01,5.0,SW,9.2,-,N/A,,Haze,220,2013-08-31 13:17:00
9:39 AM,75.9,70.0,82,30.01,5.0,SW,5.8,-,N/A,,Haze,220,2013-08-31 13:39:00
9:53 AM,75.9,70.0,82,29.94,5.0,SW,8.1,-,N/A,,Haze,220,2013-08-31 13:53:00
10:31 AM,77.0,70.0,79,30.01,8.0,SW,8.1,-,N/A,,Overcast,230,2013-08-31 14:31:00
10:53 AM,77.0,69.1,76,29.94,6.0,Variable,6.9,-,N/A,,Haze,0,2013-08-31 14:53:00
11:53 AM,75.9,70.0,82,29.94,8.0,SW,10.4,-,0.00,Rain,Light Rain,220,2013-08-31 15:53:00
12:33 PM,77.0,72.0,84,30.01,3.0,SW,9.2,-,0.02,,Haze,230,2013-08-31 16:33:00
12:53 PM,80.1,73.0,79,29.92,3.0,WSW,11.5,-,0.02,,Haze,250,2013-08-31 16:53:00
1:12 PM,79.0,72.0,79,30.00,4.0,SW,9.2,-,N/A,,Haze,230,2013-08-31 17:12:00
1:53 PM,81.0,71.1,72,29.90,6.0,SSW,10.4,-,N/A,,Haze,210,2013-08-31 17:53:00
2:46 PM,84.0,70.0,63,29.96,8.0,Calm,Calm,-,N/A,,Mostly Cloudy,0,2013-08-31 18:46:00
2:53 PM,82.9,70.0,65,29.88,8.0,SW,4.6,-,N/A,,Mostly Cloudy,230,2013-08-31 18:53:00
3:53 PM,75.0,64.9,71,29.89,6.0,ENE,9.2,19.6,0.01,Rain,Light Rain,60,2013-08-31 19:53:00
3:59 PM,72.0,66.0,81,29.97,2.0,East,8.1,19.6,0.03,Rain-Thunderstorm,Heavy Thunderstorms and Rain,100,2013-08-31 19:59:00
4:12 PM,72.0,68.0,87,29.94,7.0,East,6.9,-,0.08,Rain-Thunderstorm,Light Thunderstorms and Rain,80,2013-08-31 20:12:00
4:40 PM,77.0,66.9,71,29.94,10.0,Variable,3.5,-,0.08,,Mostly Cloudy,0,2013-08-31 20:40:00
4:53 PM,78.1,66.9,68,29.87,10.0,Variable,3.5,-,N/A,,Mostly Cloudy,0,2013-08-31 20:53:00
5:53 PM,73.9,66.9,79,29.86,10.0,SSE,3.5,-,N/A,,Mostly Cloudy,150,2013-08-31 21:53:00
6:53 PM,73.9,68.0,82,29.86,10.0,Calm,Calm,-,N/A,,Mostly Cloudy,0,2013-08-31 22:53:00
7:53 PM,72.0,68.0,87,29.88,10.0,Calm,Calm,-,N/A,,Mostly Cloudy,0,2013-08-31 23:53:00
8:53 PM,71.1,68.0,90,29.89,9.0,Calm,Calm,-,N/A,,Mostly Cloudy,0,2013-09-01 00:53:00
9:53 PM,70.0,66.9,90,29.91,10.0,SSW,8.1,-,N/A,,Mostly Cloudy,210,2013-09-01 01:53:00
10:53 PM,69.1,66.9,93,29.88,6.0,East,3.5,-,N/A,,Mostly Cloudy,80,2013-09-01 02:53:00
11:53 PM,69.1,66.9,93,29.90,7.0,WNW,8.1,-,N/A,,Mostly Cloudy,300,2013-09-01 03:53:00